{"data":{"norad_id":55597,"epoch":"2026-09-20T16:15:10.529280Z","epoch_age_seconds":85095,"freshness":"FRESH","line1":"1 55597U 23020AE  26263.67720520  .00000496  00000+0  27553-4 0  9990","line2":"2 55597  43.0034 332.7649 0001465 274.2900  85.7784 15.27581725198865","mean_motion":15.27581725,"eccentricity":0.0001465,"inclination_deg":43.0034,"raan_deg":332.7649,"arg_perigee_deg":274.29,"mean_anomaly_deg":85.7784,"bstar":2.7553e-5,"rev_number":19886,"period_min":94.266642264263,"perigee_km":482.03876776759,"apogee_km":484.04909378031,"semimajor_km":6861.1809307739,"source":"CELESTRAK","updated_at":"2026-09-21T09:00:33.270228Z"}}